Wind_Speed
37 35 33 30 26 24 21 18 15 14 14 12 12 11 11 13 14 16 17 18 18 19
37 36 35 31 27 25 22 19 15 13 11 10 10 10 10 11 11 12 13 15 16 18
37 36 34 31 29 26 21 18 15 12 10 9 9 9 10 10 9 11 11 12 13 15
39 36 34 33 30 27 22 19 16 13 11 10 10 9 10 10 10 11 11 12 13 14
38 35 34 34 31 28 25 21 17 14 13 12 11 11 11 11 11 12 12 12 13 14
37 36 36 35 33 29 27 24 20 17 15 13 12 12 12 12 12 13 13 12 13 13
39 39 38 36 34 31 29 27 23 20 16 14 13 12 12 12 13 13 12 12 12 12
41 40 38 37 36 33 31 29 25 21 18 15 14 13 12 12 13 14 13 12 11 12
40 40 40 38 37 35 33 31 27 25 21 18 16 13 12 13 15 14 14 12 11 12
42 41 42 40 38 38 37 34 32 27 23 21 17 14 14 14 15 15 13 13 12 11
42 43 42 40 41 41 40 39 35 31 26 22 18 16 15 15 16 14 13 13 11 9
43 41 42 42 44 43 42 41 38 33 27 24 20 18 17 17 16 14 13 11 9 8
41 40 41 46 43 44 43 45 40 33 28 25 21 19 19 18 17 15 12 10 8 7
37 41 44 45 42 45 42 41 38 34 28 25 23 21 20 19 19 16 13 10 9 8
Wind_Direction
232 236 240 244 248 253 258 265 271 271 271 270 267 267 266 267 268 267 268 270 272 275
231 235 238 242 246 251 255 261 266 266 265 266 266 268 270 271 275 273 273 276 278 278
231 234 238 242 244 246 250 252 252 252 257 261 263 263 266 271 273 275 280 280 279 281
232 234 238 240 242 243 244 242 240 244 250 258 261 262 265 270 271 274 279 282 283 287
233 234 236 237 239 238 238 235 234 238 246 252 257 260 261 265 268 272 277 284 285 291
233 233 234 236 236 235 233 230 229 234 242 250 254 256 260 263 265 269 274 282 287 295
232 233 235 236 236 233 229 227 226 230 236 243 247 251 253 258 261 264 269 277 283 291
234 236 236 237 236 233 229 226 225 227 230 235 240 244 246 252 257 260 266 272 280 289
235 236 236 235 234 232 229 225 223 224 227 230 236 239 241 247 253 258 264 269 276 283
236 235 235 234 230 229 226 222 222 222 225 228 231 232 234 239 247 254 259 266 273 283
232 234 234 232 230 228 225 222 220 221 225 227 227 228 229 230 240 245 253 263 272 281
232 227 229 230 230 228 223 221 220 221 222 224 225 225 223 225 229 237 248 260 265 274
230 226 225 231 227 228 224 222 219 218 221 224 224 221 221 222 222 230 240 248 248 253
235 234 234 232 226 227 221 219 215 214 215 217 220 219 218 220 219 226 232 237 237 253
Height
795 797 799 802 804 806 808 809 811 811 811 811 812 812 812 812 813 813 814 814 814 815
788 791 792 796 799 801 803 805 806 806 806 807 807 808 808 808 809 809 809 809 810 809
781 784 788 792 794 796 798 800 800 801 802 803 804 804 804 804 805 805 805 805 804 804
774 778 783 786 788 791 793 795 796 797 798 798 799 800 800 801 801 801 801 801 800 799
769 773 776 779 781 785 787 790 791 792 793 794 795 796 797 797 797 797 797 797 795 795
763 766 768 771 775 779 782 784 786 787 788 789 790 791 792 792 793 794 793 793 791 791
754 757 761 765 769 772 775 778 780 782 783 784 785 786 787 788 790 790 789 789 788 787
745 750 754 758 762 766 769 772 775 777 778 779 780 781 783 784 786 786 785 785 784 783
737 741 744 748 753 759 763 766 769 771 773 773 774 777 778 780 781 781 781 781 780 778
729 731 734 739 744 748 753 758 761 764 766 767 769 771 773 775 776 776 777 776 775 775
718 721 725 730 734 738 743 748 753 757 760 762 764 766 767 769 771 772 772 771 772 771
706 710 715 720 724 728 733 739 743 748 753 755 758 760 762 763 765 767 767 769 768 767
696 700 704 708 713 718 723 728 735 741 745 749 752 754 756 758 760 761 763 764 763 764
688 690 693 697 702 706 713 719 726 731 737 741 744 747 750 752 753 756 758 758 759 761